[[{"header":{"parameterUnit":"m.s-1","parameterCategory":1,"la1":30.2991,"la2":30.254,"lo1":-89.0895,"lo2":-89.0444,"dy":0.0017,"dx":0.0017,"nx":28,"ny":28,"refTime":"2023-08-13T03:00:00:Z","depth":0,"parameterNumber":2,"parameterNumberName":"U-component_of_WINDS"},"data":[0,0,0,0,0,0,0,0,0,0,0,0,0,0,0,0,0,0,0,0,0,0,0,0,0,0,0,0,0,0,0,0,0,0,0,0,0,0,0,0,0,0,0,0,0,0,0,0,0,0,0,0,0,0,0,0,0,0,3.3,3.3,0,3.3023,3.3024,3.3024,3.2949,3.2947,3.2944,3.2942,3.2964,3.2967,3.297,0,0,0,0,0,0,0,0,0,0,0,0,0,3.2889,3.2891,3.3,3.3,3.3,3.3023,3.3024,3.3024,3.2949,3.2946,3.2944,3.2941,3.2964,3.2967,3.297,0,0,0,0,0,0,0,0,0,0,0,0,0,3.2927,3.2892,3.3,3.2966,3.2963,3.3023,3.3024,3.3024,3.295,3.2946,3.2943,3.294,3.2962,3.2966,3.297,3.3064,0,0,3.2983,3.2985,0,0,0,0,0,0,0,0,3.2925,3.2931,3.2971,3.2968,3.2965,3.298,3.2993,3.3037,3.2951,3.2955,3.2942,3.2938,3.2972,3.2975,3.2987,3.3065,3.3066,3.2983,3.2986,3.2987,3.2989,0,0,0,0,0,0,0,3.2923,3.293,3.3009,3.2971,3.2968,3.2949,3.2951,3.3001,3.2982,3.2954,3.2949,3.2953,3.297,3.2983,3.2987,3.3066,3.2983,3.2987,3.2989,3.2991,3.3222,3.3225,0,0,0,0,0,0,3.2925,3.2928,3.3008,3.301,3.2937,3.2954,3.2956,3.2978,3.2981,3.2979,3.2956,3.2949,3.2978,3.2982,3.2987,3.3097,3.2987,3.2991,3.2994,3.3218,3.3223,3.3227,0,0,0,0,0,0,3.2923,3.2932,3.3007,3.2968,3.2976,3.296,3.2986,3.2981,3.2994,3.2983,3.2979,3.2973,3.2975,3.2982,3.3045,3.3096,3.2993,3.2997,3.3214,3.3219,3.3225,3.3316,0,0,0,0,0,0,3.292,3.2932,3.2967,3.2969,3.2978,3.3065,3.2989,3.2984,3.3001,3.2993,3.2997,3.2995,3.2973,3.304,3.305,3.31,3.3,3.3209,3.3216,3.3223,3.3308,3.3324,3.3337,0,0,0,0,0,3.2916,3.2992,3.297,3.298,3.3022,3.3068,3.3073,3.3048,3.3006,3.3041,3.3034,3.2995,3.309,3.3047,3.3057,3.311,3.3206,3.3214,3.3222,3.3302,3.3321,3.3337,0,0,0,0,0,0,3.2995,3.2991,3.2967,3.3045,3.3058,3.3056,3.3099,3.3069,3.3093,3.3084,3.305,3.3052,3.3122,3.3122,3.3075,3.32,3.314,3.3151,3.3197,3.3215,3.323,3.3227,3.3003,0,0,0,0,0,3.3023,3.3061,3.3055,3.3125,3.3133,3.3115,3.3134,3.3114,3.3125,3.313,3.3127,3.3139,3.3172,3.3194,3.3223,3.3309,3.3308,3.335,3.3364,3.3376,3.3386,3.3431,3.3449,3.3254,3.3254,3.3254,0,0,3.3078,3.308,3.3106,3.3141,3.3148,3.3188,3.312,3.3165,3.3195,3.3136,3.3196,3.3195,3.3207,3.3282,3.3315,3.3284,3.344,3.3387,3.3397,3.3399,3.3441,3.346,3.3476,3.326,3.3259,3.3258,0,0,3.3199,3.3205,3.3264,3.3274,3.3286,3.3274,3.3289,3.3292,3.3289,3.3349,3.3306,3.3341,3.3397,3.3407,3.342,3.3548,3.3512,3.3558,3.3633,3.3678,3.3693,3.3707,3.3752,3.3768,3.3568,3.3568,3.3568,0,3.3266,3.3325,3.3298,3.3347,3.3363,3.3314,3.3373,3.3383,3.3405,3.3417,3.3383,3.3454,3.3458,3.3535,3.3566,3.3578,3.3593,3.3556,3.3693,3.3707,3.3719,3.3761,3.3778,3.3573,3.3573,3.3572,3.3572,0,3.3407,3.3449,3.3495,3.3518,3.354,3.3594,3.3574,3.36,3.3578,3.357,3.3632,3.3636,3.3665,3.3682,3.3661,3.3756,3.3737,3.3699,3.3638,3.3743,3.3782,3.3798,3.3581,3.3579,3.3578,3.3576,0,0,3.3577,3.3586,3.3603,3.3613,3.3624,3.3656,3.3708,3.3737,3.3759,3.3776,3.3819,3.3869,3.3834,3.3849,3.3828,3.3868,3.3968,3.3825,3.3824,3.385,3.4073,3.4101,3.412,3.3946,3.3949,3.3951,3.4072,0,3.3696,3.3785,3.3763,3.3851,3.389,3.3844,3.3889,3.3901,3.3896,3.3927,3.3921,3.3957,3.3908,3.3917,3.3954,3.3948,3.4012,3.3939,3.3984,3.3986,3.3981,3.4141,3.417,3.4283,3.4087,3.409,3.4092,0,3.3846,3.387,3.3962,3.3968,3.3983,3.4024,3.405,3.4081,3.4094,3.4087,3.4104,3.4076,3.4127,3.4067,3.4137,3.4088,3.4105,3.4106,3.4109,3.4111,3.4044,3.4146,3.4319,3.4336,3.4116,3.4114,3.4112,0,3.396,3.4015,3.4077,3.4088,3.4096,3.4126,3.4131,3.414,3.416,3.4182,3.4194,3.4223,3.4238,3.4261,3.4241,3.4199,3.4314,3.4252,3.4309,3.431,3.4334,3.4332,3.4511,3.4348,3.4347,3.4347,3.4347,0,3.4094,3.4152,3.4129,3.4167,3.4231,3.4206,3.4269,3.4269,3.4278,3.4315,3.4278,3.4314,3.4287,3.432,3.4305,3.4365,3.4373,3.4368,3.4363,3.4371,3.4371,3.438,3.4371,3.4351,3.435,3.435,3.4349,0,3.4231,3.4218,3.4283,3.4286,3.4288,3.4335,3.4338,3.4373,3.4366,3.4414,3.4423,3.4411,3.4449,3.4432,3.4471,3.4462,3.4538,3.4524,3.4534,3.453,3.4587,3.4582,3.4777,3.4801,3.4623,3.4625,3.4627,0,3.4317,3.436,3.4369,3.4392,3.44,3.4437,3.4457,3.4434,3.4456,3.4475,3.4508,3.4543,3.4569,3.4631,3.4625,3.4655,3.464,3.4707,3.4644,3.4651,3.464,3.4637,3.4641,3.4719,3.4721,3.4722,3.4724,0,3.447,3.4462,3.4493,3.4522,3.4547,3.4569,3.4587,3.4608,3.4586,3.4613,3.4651,3.4672,3.4713,3.4747,3.4774,3.4778,3.4748,3.4744,3.4758,3.4766,3.477,3.4767,3.4567,3.4739,3.4737,3.4736,3.4735,3.4735,3.4583,3.4621,3.4633,3.4668,3.468,3.4699,3.4732,3.473,3.4761,3.4793,3.4778,3.4822,3.4834,3.4867,3.4876,3.4911,3.4884,3.4905,3.4911,3.4916,3.4923,3.4766,3.4915,3.4915,3.4915,3.4914,3.4914,0,3.4734,3.474,3.4774,3.4801,3.483,3.48,3.4819,3.4844,3.4884,3.4898,3.4925,3.497,3.5004,3.5002,3.5033,3.5061,3.5047,3.5069,3.5066,3.5068,3.4945,3.4929,3.508,3.508,3.508,3.508,3.508,3.5079,3.4816,3.4877,3.4871,3.4937,3.4943,3.4987,3.5,3.5017,3.5028,3.508,3.5108,3.5107,3.5115,3.5146,3.5176,3.5174,3.5187,3.5214,3.5208,3.5093,3.5076,3.5061,3.5045,3.5218,3.5218,3.5327,3.5328,3.5329]},{"header":{"parameterUnit":"m.s-1","parameterCategory":1,"la1":30.2991,"la2":30.254,"lo1":-89.0895,"lo2":-89.0444,"dy":0.0017,"dx":0.0017,"nx":28,"ny":28,"refTime":"2023-08-13T03:00:00:Z","depth":0,"parameterNumber":3,"parameterNumberName":"V-component_of_WINDS"},"data":[0,0,0,0,0,0,0,0,0,0,0,0,0,0,0,0,0,0,0,0,0,0,0,0,0,0,0,0,0,0,0,0,0,0,0,0,0,0,0,0,0,0,0,0,0,0,0,0,0,0,0,0,0,0,0,0,0,0,-0.7368,-0.7368,0,-0.7329,-0.7329,-0.7328,-0.7291,-0.729,-0.729,-0.7289,-0.7246,-0.7245,-0.7244,0,0,0,0,0,0,0,0,0,0,0,0,0,-0.7408,-0.7408,-0.7368,-0.7368,-0.7367,-0.7329,-0.7329,-0.7328,-0.7291,-0.729,-0.729,-0.7289,-0.7246,-0.7245,-0.7244,0,0,0,0,0,0,0,0,0,0,0,0,0,-0.7382,-0.7407,-0.7369,-0.7344,-0.7342,-0.7329,-0.7329,-0.7328,-0.7291,-0.729,-0.729,-0.7289,-0.7246,-0.7245,-0.7244,-0.7251,0,0,-0.7241,-0.724,0,0,0,0,0,0,0,0,-0.7384,-0.7381,-0.7348,-0.7346,-0.7343,-0.7314,-0.7327,-0.7302,-0.7291,-0.731,-0.7289,-0.7289,-0.7269,-0.7266,-0.726,-0.7249,-0.7247,-0.7241,-0.724,-0.7239,-0.7239,0,0,0,0,0,0,0,-0.7385,-0.7382,-0.7353,-0.7348,-0.7345,-0.7334,-0.733,-0.7322,-0.7294,-0.7308,-0.7306,-0.7302,-0.7267,-0.7261,-0.7259,-0.7247,-0.7241,-0.724,-0.7239,-0.7238,-0.724,-0.7241,0,0,0,0,0,0,-0.7391,-0.7384,-0.7354,-0.7352,-0.7362,-0.7334,-0.7329,-0.7324,-0.7294,-0.7289,-0.7302,-0.73,-0.7263,-0.726,-0.7257,-0.7263,-0.7239,-0.7238,-0.7238,-0.7239,-0.724,-0.7241,0,0,0,0,0,0,-0.7392,-0.7389,-0.7356,-0.7367,-0.7362,-0.7334,-0.7329,-0.7324,-0.7318,-0.7289,-0.7284,-0.7301,-0.7262,-0.7258,-0.7253,-0.7261,-0.7238,-0.7237,-0.7239,-0.724,-0.7241,-0.7277,0,0,0,0,0,0,-0.7394,-0.739,-0.7393,-0.7367,-0.7362,-0.7354,-0.7329,-0.7323,-0.7316,-0.7313,-0.7287,-0.7282,-0.7262,-0.7255,-0.7252,-0.7259,-0.7236,-0.7238,-0.7239,-0.724,-0.7275,-0.7279,-0.7282,0,0,0,0,0,-0.7395,-0.7404,-0.7393,-0.739,-0.7365,-0.7354,-0.7351,-0.7328,-0.7317,-0.7319,-0.7301,-0.7283,-0.7261,-0.7255,-0.7251,-0.7258,-0.7237,-0.7239,-0.724,-0.7273,-0.7278,-0.7282,0,0,0,0,0,0,-0.7429,-0.74,-0.7388,-0.7388,-0.7374,-0.7348,-0.735,-0.7335,-0.7322,-0.732,-0.7291,-0.7286,-0.7284,-0.727,-0.7264,-0.7264,-0.7247,-0.7247,-0.7272,-0.7277,-0.7281,-0.7284,-0.7235,0,0,0,0,0,-0.7437,-0.7432,-0.7406,-0.7409,-0.7403,-0.7378,-0.7372,-0.7357,-0.734,-0.7334,-0.7315,-0.7299,-0.7289,-0.7282,-0.7271,-0.7273,-0.7266,-0.7276,-0.728,-0.7283,-0.7284,-0.7284,-0.7287,-0.7246,-0.7246,-0.7246,0,0,-0.7453,-0.7436,-0.7434,-0.7415,-0.7403,-0.7397,-0.7373,-0.7368,-0.7363,-0.7332,-0.7327,-0.7313,-0.7293,-0.7291,-0.729,-0.728,-0.7294,-0.7285,-0.7288,-0.7287,-0.7286,-0.729,-0.7293,-0.7247,-0.7247,-0.7247,0,0,-0.7478,-0.7465,-0.7466,-0.7455,-0.7436,-0.742,-0.742,-0.7396,-0.7386,-0.7381,-0.7357,-0.7351,-0.7334,-0.732,-0.7312,-0.7333,-0.7315,-0.733,-0.735,-0.735,-0.7354,-0.7356,-0.7364,-0.7367,-0.7331,-0.7332,-0.7332,0,-0.7499,-0.7491,-0.7469,-0.7465,-0.7458,-0.7431,-0.7432,-0.7421,-0.7399,-0.7394,-0.7384,-0.7363,-0.7347,-0.7342,-0.7348,-0.7342,-0.734,-0.7333,-0.7355,-0.7358,-0.736,-0.7366,-0.7369,-0.7333,-0.7333,-0.7333,-0.7333,0,-0.7518,-0.7512,-0.7516,-0.7497,-0.7489,-0.7488,-0.7465,-0.746,-0.7445,-0.743,-0.7424,-0.7405,-0.739,-0.7387,-0.7372,-0.738,-0.7375,-0.7361,-0.7343,-0.7366,-0.7372,-0.7374,-0.7336,-0.7336,-0.7335,-0.7334,0,0,-0.7563,-0.7533,-0.7534,-0.7525,-0.7503,-0.7498,-0.7496,-0.7482,-0.7478,-0.7464,-0.7461,-0.7447,-0.7434,-0.7424,-0.7407,-0.7408,-0.7426,-0.7393,-0.7392,-0.7399,-0.7433,-0.7443,-0.7447,-0.7414,-0.7414,-0.7415,-0.7434,0,-0.7584,-0.7579,-0.7559,-0.7559,-0.7554,-0.7529,-0.7527,-0.7512,-0.7498,-0.749,-0.7474,-0.7465,-0.7449,-0.7442,-0.7442,-0.7424,-0.7432,-0.7422,-0.7409,-0.7409,-0.7415,-0.745,-0.7461,-0.748,-0.7436,-0.7437,-0.7437,0,-0.7608,-0.7597,-0.7597,-0.7576,-0.7573,-0.7571,-0.7557,-0.7551,-0.7534,-0.7523,-0.7513,-0.7495,-0.749,-0.7474,-0.7466,-0.746,-0.7453,-0.7444,-0.7444,-0.7441,-0.7424,-0.7447,-0.7485,-0.7488,-0.744,-0.744,-0.744,0,-0.764,-0.7625,-0.7624,-0.7617,-0.7592,-0.7592,-0.7581,-0.7564,-0.7557,-0.7545,-0.754,-0.7527,-0.7519,-0.7509,-0.7487,-0.7478,-0.7482,-0.7464,-0.7472,-0.7472,-0.7473,-0.7473,-0.751,-0.747,-0.747,-0.747,-0.747,0,-0.7665,-0.7666,-0.7638,-0.7637,-0.7637,-0.7614,-0.7614,-0.7601,-0.7586,-0.7582,-0.7559,-0.7555,-0.7527,-0.7519,-0.7502,-0.7498,-0.7495,-0.7486,-0.7481,-0.7487,-0.7489,-0.7482,-0.748,-0.7471,-0.7471,-0.7471,-0.747,0,-0.7701,-0.7682,-0.7678,-0.7656,-0.765,-0.7651,-0.7631,-0.7629,-0.7614,-0.7608,-0.7605,-0.7581,-0.7571,-0.7549,-0.7532,-0.7521,-0.752,-0.7512,-0.7526,-0.7523,-0.7533,-0.7532,-0.7566,-0.7569,-0.7528,-0.7529,-0.7529,0,-0.7718,-0.7718,-0.7696,-0.7692,-0.7683,-0.7676,-0.767,-0.7648,-0.7641,-0.7623,-0.7622,-0.7611,-0.76,-0.7585,-0.7565,-0.7552,-0.7544,-0.7557,-0.7541,-0.7548,-0.7543,-0.7543,-0.7543,-0.756,-0.756,-0.7561,-0.7561,0,-0.775,-0.7741,-0.7733,-0.7722,-0.7715,-0.7705,-0.7694,-0.7691,-0.7666,-0.766,-0.765,-0.7642,-0.7626,-0.7615,-0.7599,-0.7587,-0.7569,-0.7566,-0.7567,-0.7573,-0.7581,-0.7577,-0.7535,-0.7565,-0.7565,-0.7565,-0.7564,-0.7564,-0.7777,-0.7776,-0.7761,-0.7753,-0.7742,-0.7732,-0.7729,-0.7714,-0.7706,-0.7692,-0.7679,-0.767,-0.7653,-0.7631,-0.762,-0.7612,-0.7603,-0.7605,-0.7605,-0.7606,-0.7609,-0.7584,-0.7609,-0.7609,-0.7609,-0.7609,-0.7609,0,-0.7808,-0.7797,-0.779,-0.7775,-0.7769,-0.7755,-0.7742,-0.7737,-0.773,-0.7716,-0.7707,-0.7695,-0.7684,-0.7664,-0.7651,-0.7649,-0.7641,-0.7646,-0.7646,-0.7643,-0.7617,-0.7617,-0.7653,-0.7653,-0.7653,-0.7653,-0.7653,-0.7653,-0.7823,-0.7821,-0.781,-0.7803,-0.7792,-0.7784,-0.7778,-0.7768,-0.7757,-0.7746,-0.7737,-0.7725,-0.7708,-0.7694,-0.7683,-0.7677,-0.7673,-0.7681,-0.7673,-0.7649,-0.7645,-0.7641,-0.7641,-0.7681,-0.7681,-0.7699,-0.7699,-0.77]}]]